Regional Weather Roundup
Issued by NWS

Home | Current Version | Previous Version | Graphics & Text | Print | Product List | Glossary On
Versions: 1 2 3 4 5 6 7 8 9 10 11 12 13 14 15 16 17 18 19 20 21 22 23 24 25 26 27
000
ASUS45 KCYS 161310
RWRWY

WYOMING REGIONAL WEATHER ROUNDUP
NATIONAL WEATHER SERVICE CHEYENNE WY
600 AM MST MON JAN 16 2017

NOTE:  "FAIR" INDICATES FEW OR NO CLOUDS BELOW 12,000 FEET
WITH NO SIGNIFICANT WEATHER AND/OR OBSTRUCTIONS TO VISIBILITY.

WYZ001-161400-
YELLOWSTONE NATIONAL PARK

CITY           SKY/WX    TMP DP  RH WIND       PRES   REMARKS
LK YELLOWSTONE   N/A    -18 -23  77 CALM      30.17R
W YELLOWSTONE  NOT AVBL

$$
WYZ002>013-054>058-071-098>099-161400-
NORTHERN WYOMING

CITY           SKY/WX    TMP DP  RH WIND       PRES   REMARKS
JACKSON        FAIR     -17 -20  83 NE6       30.21R WCI -31
CODY           FAIR      13   4  67 S3        30.13R
GREYBULL       FAIR     -16 -22  74 CALM      30.23R
WORLAND        FAIR      -9 -11  91 CALM      30.19R
SHERIDAN       FAIR      14   2  58 S6        30.12S WCI   5
BUFFALO        FAIR      24   2  38 NW6       30.10S WCI  17
GILLETTE       FAIR      19   7  59 W7        30.11R WCI  10
HULETT         FAIR      18   5  57 S7        30.10R WCI   8
NEWCASTLE      FAIR      19   5  53 N10       30.07R WCI   8

$$
WYZ014>020-022>026-101>103-161400-
CENTRAL WYOMING

CITY           SKY/WX    TMP DP  RH WIND       PRES   REMARKS
BIG PINEY      FAIR     -22 -25  85 CALM      30.13R
PINEDALE       FAIR     -24 -31  69 NW5       30.13R WCI -38
DUBOIS         NOT AVBL
LANDER         FAIR       0  -3  87 CALM      30.12S
RIVERTON       FOG       -6  -8  91 CALM      30.14S VSB 3/4
CASPER         FAIR      10   5  80 MISG      30.11R
DOUGLAS        FAIR      20  11  68 NW15      30.10R WCI   6

$$
WYZ021-027>030-104>119-161400-
SOUTHERN WYOMING

CITY           SKY/WX    TMP DP  RH WIND       PRES   REMARKS
EVANSTON       HAZE       2  -4  76 NE3       30.11S VSB 1/4
ROCK SPRINGS   FOG       -9 -12  87 SW6       30.13S VSB 1/4 WCI -22
RAWLINS        FAIR       1  -5  75 CALM      30.08R
LARAMIE        CLOUDY    19  16  88 N5        30.01S WCI  12
CHEYENNE       CLOUDY    30  15  53 N18G26    29.99R WCI  18
TORRINGTON     CLOUDY    33  22  63 NW10      30.03R WCI  25

$$




USA.gov is the U.S. government's official web portal to all federal, state and local government web resources and services.